Regional Weather Roundup
Issued by NWS

Home | Current Version | Previous Version | Graphics & Text | Print | Product List | Glossary On
Versions: 1 2 3 4 5 6 7 8 9 10 11 12 13 14 15 16 17 18 19 20 21 22 23 24 25 26 27 28 29 30 31 32 33 34 35 36 37 38 39 40 41 42 43 44 45 46 47 48 49 50
000
ASUS45 KTFX 300210
RWRMT
MONTANA REGIONAL WEATHER ROUNDUP
NATIONAL WEATHER SERVICE GREAT FALLS MT
800 PM MDT MON AUG 29 2016

NOTE: "FAIR" INDICATES FEW OR NO CLOUDS BELOW 12000 FEET WITH NO
SIGNIFICANT WEATHER AND/OR OBSTRUCTIONS TO VISIBILITY.

MTZ001>007-043-300300-
WEST OF THE DIVIDE

CITY           SKY/WX    TMP DP  RH WIND       PRES   REMARKS
KALISPELL      MOCLDY    76  48  37 VRB6      30.01R
MISSOULA       MOCLDY    86  35  16 SE8       30.00R
BUTTE          CLOUDY    80  31  16 E9G17     30.18S
MULLAN PASS    PTCLDY    72  39  30 NW6       30.20S
DEER LODGE       N/A     75  39  27 W5        30.12S
EUREKA           N/A     73  54  49 S6        29.98F
HAMILTON         N/A     79  45  29 CALM      30.04R
LIBBY            N/A     82  52  34 SE5       29.94S
PLAINS           N/A     79  53  40 CALM      29.97R
$$

MTZ008-052>055-300300-
SOUTHWEST MONTANA

CITY           SKY/WX    TMP DP  RH WIND       PRES   REMARKS
DILLON         CLOUDY    76  25  15 SE9       30.14F
W YELLOWSTONE  CLOUDY    72  16  12 S3        30.32R
ENNIS          CLEAR     68  36  30 E7        30.23S HAZE
THREE FORKS      N/A     78  78 100 SE6       30.10R
TWIN BRIDGES     N/A     79  34  19 E7        30.11S
$$

MTZ009-010-012-014-046-048-049-054-300300-
EAST SLOPES AND CENTRAL MONTANA

CITY           SKY/WX    TMP DP  RH WIND       PRES   REMARKS
CUT BANK       PTCLDY    78  40  25 E15       30.08F
GREAT FALLS    CLOUDY    79  41  25 E13       30.08F
HELENA         CLEAR     84  36  18 SE5       30.05F
CHOTEAU          N/A     77  37  24 E10       30.11R
CONRAD           N/A     79  44  28 NE6       30.11S
$$

MTZ011-013-016-021-045-047-050-051-300300-
NORTH CENTRAL MONTANA

CITY           SKY/WX    TMP DP  RH WIND       PRES   REMARKS
HAVRE          CLEAR     75  51  43 E7        30.09S
LEWISTOWN      CLOUDY    77  45  32 E10       30.17S
N BAR RANCH      N/A     72  45  37 SE6       30.23S
CHINOOK          N/A     79  54  41 E7        30.08F
$$

MTZ017>020-022>027-061-062-300300-
NORTHEAST MONTANA

CITY           SKY/WX    TMP DP  RH WIND       PRES   REMARKS
GLASGOW        CLEAR     75  46  35 E9        30.13S
JORDAN           N/A     78  47  33 E6        30.13S
SIDNEY         CLEAR     72  48  42 NE7       30.19R
WOLF POINT     CLEAR     76  45  33 E7        30.16S
PLENTYWOOD       N/A     70  41  35 E5        30.21S
POPLAR           N/A     73  43  33 E7        30.18S
SCOBEY           N/A     68  41  37 SE3       30.19R
$$

MTZ028>42-056>058-300300-
SOUTHCENTRAL AND SOUTHEAST MONTANA

CITY           SKY/WX    TMP DP  RH WIND       PRES   REMARKS
BAKER          CLEAR     71  44  37 SE10      30.23S
BILLINGS       CLOUDY    79  50  36 E6        30.14S
LIVINGSTON     CLOUDY    76  46  34 E16       30.17R
MILES CITY     CLEAR     82  45  27 E7        30.15R
EKALAKA          N/A     73  43  34 E9        30.19S
FORSYTH          N/A     79  46  31 E6        30.13R
LAUREL           N/A     78  47  33 N3        30.12S
ROUNDUP          N/A     80  46  30 CALM      30.06S
$$

REGIONAL REPORTS...DAKOTAS

CITY           SKY/WX    TMP DP  RH WIND       PRES   REMARKS
WILLISTON      CLEAR     73  38  27 E7        30.21S
MINOT          CLEAR     65  46  50 NE7       30.22S
DICKINSON      CLEAR     62  44  51 E8        30.23R
CROSBY           N/A     63  45  51 E6        30.25R
WATFORD CITY     N/A     68  45  42 SE9       30.23R
BISMARCK       CLEAR     65  50  58 NE6       30.23R
GRAND FORKS    CLEAR     62  54  74 NW6       30.17R
FARGO          CLEAR     68  59  73 N8        30.15R
BUFFALO SD       N/A     70  46  42 E14       30.17S
RAPID CITY     CLOUDY    70  60  70 NE9       30.23R
$$

REGIONAL REPORTS...WYOMING/IDAHO/WASHINGTON

CITY           SKY/WX    TMP DP  RH WIND       PRES   REMARKS
GILLETTE       CLEAR     76  46  34 S13       30.23R
SHERIDAN       CLEAR     77  47  34 CALM      30.18S
BUFFALO WY     CLOUDY    77  39  25 W6        30.28R
CODY           CLOUDY    77  37  24 SW6       30.24R
YELLOWSTONE LA   N/A     61  34  36 CALM      30.43R
IDAHO FALLS    CLOUDY    79  34  19 S5        30.17S
SALMON         PTCLDY    77  39  25 NE5       30.08R
BOISE          CLOUDY    87  35  15 N5        29.99F
SPOKANE        PTCLDY    88  39  17 W10       29.94S
$$

REGIONAL REPORTS...ALBERTA

CITY           SKY/WX    TMP DP  RH WIND       PRES   REMARKS
EDMONTON       PTCLDY    59  46  63 E8        30.15S
CALGARY        MOCLDY    66  50  55 E12       30.10S
LETHBRIDGE     MOCLDY    75  45  33 E10       30.05S
MEDICINE HAT   PTCLDY    73  52  46 E8        30.08F
$$

REGIONAL REPORTS...SASKATCHEWAN

CITY           SKY/WX    TMP DP  RH WIND       PRES   REMARKS
SWIFT CURRENT  CLEAR     64  48  55 E10       30.17F
REGINA         MOCLDY    64  45  48 NE6       30.22S
SASKATOON      PTCLDY    63  41  45 N5        30.23S
$$



USA.gov is the U.S. government's official web portal to all federal, state and local government web resources and services.